loading
|

SCOUT A DEB, 3122

Orbit data source: Space-Track

SCOUT A DEB, 3122 is space debris in LEO originally from a launch on Mon, 25 Sep 1967 UTC launched from the Air Force Western Test Range (AFWTR). Debris objects in space refer to the collection of defunct objects orbiting the Earth. Examples of debris include non-operational satellites, rocket bodies, and fragments generated from explosions, collisions, or faulty payload assembly.

Loading next visibility...
Loading greatness...
SCOUT A DEB details
Identifier
3122, 1967-092D
Orbit
LEO
Last TLE update2 days ago
Origin
Flag of USUSN NAVAIR (US)
ManufacturerUnknown
MissionSpacecraft
Bus & MotorUnknown bus, Unknown motor
MassUnknown
Launch date (UTC)
1967-09-25 (57 years ago)
Launch vehicleUnknown
Launch site
Air Force Western Test Range (AFWTR)
Object type
Payload
Rocket body
Debris
Shape & HBRUnknown
Radar Cross SectionSmall (<0.1 m²)

Expand to show TLE details & history

TLE from 2 days ago
0 SCOUT A DEB
1 03122U 67092D   24275.59559050  .00000512  00000-0  10425-2 0  9992
2 03122  89.0874 144.2899 0186181 151.7057 238.5498 13.25610712500398
Epoch: 2024-10-01T14:17Z
Definitive object data (Epoch: 2024-10-01T14:17:39.019Z)
Latitude28.49353°
Longitude-80.4368°
Altitude1,242.06 km
Speed7.2 km/s
True Right ascension09h 39m 07s
True Declination28° 21' 31"
Sunlit
Object was in daylight at TLE epoch
Predictive object data (real-time)
Latitude23.04543°
Longitude98.50855°
Altitude1,028.122 km
Speed7.406 km/s
Apparent Right ascension20h 52m 11s
Apparent Declination-5° 55' 39"
Sunlit
Object is in full shadow
Predictive observer data (real-time)
Local Sidereal Time07:52:22
Azimuth334.477° NNW
Elevation-53.449°
Doppler factor1
Orbital elements
Apogee1,300.805 km
Perigee1,020.097 km
Semi-major axis7,538.588 km
Eccentricity0.0186181
Inclination89.0874°
RAAN144.2899°
Arg. of periapsis151.7057°
True anomaly236.75188°
Mean anomaly238.5498°
Eccentric anomaly237.64864°
Mean motion3.31595 °/min
BSTAR0.0010425
Period108.57 mins
No data available

SCOUT A DEB Visibility forecast

Observer location: 39.9160978°, -105.1181434

SCOUT A DEB is not visible in the next 10 days
Span
Click to sort rows by Start time (UTC) header in descending order
Start Az.
Max El. time (UTC)
Max El. Az.
Max El.
End time (UTC)
End Az.